Temperature
18 18 18 18 18 18 18 18 18 18 18 18 18 18 18 18 18 18 18 18 18 18 18 18 18 18 18 18 18 17 17 17 17 17 17 17 17 17 17 17 17 17 17
18 18 18 18 17 17 17 17 17 17 17 17 17 17 18 18 18 18 18 18 18 18 18 18 18 18 18 18 18 17 17 17 17 17 17 17 17 17 17 17 17 17 17
18 18 18 17 17 17 17 17 17 17 17 17 17 17 17 17 17 18 18 18 18 18 18 18 18 18 18 18 18 17 17 17 17 17 17 17 17 17 17 17 17 16 16
17 17 17 17 17 17 17 17 17 17 17 17 17 17 17 17 17 17 17 18 18 18 18 18 18 18 17 17 17 17 17 17 17 17 17 17 17 17 17 17 17 16 16
17 17 17 17 17 17 17 17 17 17 17 17 17 17 17 17 17 17 17 17 18 18 18 18 18 17 17 17 17 18 17 17 17 17 17 17 17 17 17 17 17 16 16
17 17 17 17 17 17 17 17 17 17 17 17 17 17 17 17 17 17 17 17 17 17 17 17 17 17 17 17 17 17 17 17 17 17 17 17 17 17 17 17 17 17 16
17 17 17 17 17 17 17 17 17 17 17 17 17 17 17 17 17 17 17 17 17 17 17 17 17 17 17 17 17 17 17 17 17 17 17 17 17 17 17 17 17 17 17
17 17 17 17 17 17 17 17 17 17 17 17 16 17 17 17 17 17 17 17 17 17 17 17 17 17 17 17 17 17 17 17 17 17 17 17 17 17 17 17 17 17 17
16 16 17 17 17 17 17 17 17 17 17 17 16 16 16 17 16 16 16 16 16 16 16 17 17 17 17 17 17 17 17 17 17 17 17 17 17 17 17 17 17 17 17
16 16 16 16 16 17 17 17 17 17 17 16 16 16 16 16 16 16 16 16 16 16 16 16 16 17 17 17 17 17 17 17 17 17 17 17 17 17 17 17 17 17 17
16 16 16 16 16 16 16 16 16 16 16 16 16 16 16 15 15 15 15 16 16 16 16 16 16 16 16 16 17 17 17 17 17 17 16 17 17 17 17 17 17 17 17
15 15 15 15 15 15 16 16 16 16 16 16 16 15 15 15 15 15 14 15 15 16 16 16 16 16 16 16 16 16 16 16 17 16 16 16 16 17 17 17 16 16 16
14 14 14 14 14 14 14 15 15 15 15 15 15 15 15 15 15 14 14 14 14 15 16 16 16 15 15 15 16 16 16 16 16 16 16 16 16 16 16 16 16 16 16
13 13 13 13 13 13 13 14 14 14 14 14 14 14 15 15 14 14 14 13 13 13 14 15 15 15 15 15 15 15 16 16 16 16 16 16 16 16 16 16 16 16 16
12 12 12 12 12 12 12 12 13 13 13 13 13 14 14 14 14 14 14 13 13 12 13 14 15 15 14 15 15 15 15 15 15 15 15 16 16 16 16 16 16 16 16
11 11 11 11 11 11 11 11 12 12 12 12 13 13 13 13 13 13 13 13 13 13 12 13 14 14 14 14 14 14 14 14 15 15 15 15 15 15 15 15 15 16 16
11 11 10 10 10 10 10 11 11 11 11 12 12 12 12 13 13 13 13 13 13 13 12 13 13 13 13 13 14 14 14 14 14 14 14 15 15 15 15 15 15 15 15
10 10 10 10 10 10 10 10 10 10 10 11 11 11 11 12 12 12 12 13 13 13 12 13 13 13 13 13 13 13 13 13 13 14 14 14 14 14 14 15 15 15 15
10 10 10 10 10 10 10 10 10 10 10 10 10 10 11 11 11 12 12 12 12 12 12 12 13 13 13 13 13 12 12 12 13 13 13 13 13 14 14 14 14 14 14
10 10 10 10 9 9 9 9 9 9 9 9 10 10 10 10 11 11 11 12 12 12 12 12 12 12 12 12 12 12 12 12 12 12 12 12 13 13 13 13 13 13 14
10 9 9 9 9 9 9 9 9 9 9 9 9 9 10 10 10 11 11 11 11 12 12 12 12 12 12 12 12 12 12 11 12 12 12 12 12 12 12 12 13 13 13
9 9 9 9 9 9 9 9 9 9 9 9 9 9 9 10 10 10 10 11 11 11 11 11 12 12 12 12 12 12 12 11 11 11 11 11 11 11 11 12 12 12 12
9 9 9 9 9 9 9 8 8 8 8 8 8 9 9 9 9 10 10 10 11 11 11 11 11 12 12 12 12 12 12 12 12 11 11 11 10 11 11 11 11 11 11
8 8 8 8 8 8 8 8 8 8 8 8 8 8 8 9 9 9 10 10 10 11 11 11 11 12 12 12 12 12 12 11 11 11 11 10 10 10 10 10 10 10 11
7 7 8 8 8 8 8 8 8 8 8 8 8 8 8 8 9 9 9 9 10 10 11 11 11 12 12 12 12 12 11 11 10 10 10 10 10 10 9 9 9 10 10
6 6 7 7 7 7 8 8 8 7 7 8 8 8 8 8 9 9 9 9 9 10 11 11 11 11 11 12 12 12 12 11 11 10 10 10 10 9 8 9 9 9 9
Wind_Speed
7 7 6 7 8 9 7 7 6 7 8 8 9 10 9 10 11 12 11 15 16 16 16 16 16 17 19 20 20 21 22 22 23 23 23 23 22 22 22 21 21 20 20
7 6 7 6 6 7 7 6 6 6 6 5 7 7 8 9 10 11 11 13 15 15 16 15 15 16 16 17 18 19 20 21 22 23 24 25 24 24 24 23 23 22 22
9 7 7 6 6 7 6 5 4 3 4 4 6 6 6 7 8 9 10 11 11 13 14 15 15 16 17 18 18 19 21 22 23 24 25 25 26 25 25 25 25 25 24
10 7 7 6 5 5 4 3 3 3 3 3 3 4 4 4 7 8 8 9 9 10 11 13 14 15 16 18 19 20 21 21 21 22 24 25 26 26 26 26 26 26 26
9 7 6 5 4 3 3 3 2 2 3 3 4 4 4 5 6 6 7 8 9 9 10 11 12 14 16 17 19 19 19 19 20 21 22 24 25 26 26 27 27 27 27
7 5 4 5 4 3 3 2 2 2 2 2 3 3 3 4 4 5 6 6 6 8 8 8 8 10 13 15 17 18 19 19 19 20 21 22 23 25 26 27 27 27 27
5 4 4 4 5 5 4 4 2 2 2 1 1 2 2 2 3 3 3 4 5 5 6 6 7 7 8 11 15 17 19 20 20 20 21 21 22 22 24 26 26 27 27
3 4 5 5 5 4 4 4 3 3 2 2 2 1 2 3 2 1 1 2 2 2 3 4 6 6 7 8 10 14 16 18 19 20 20 20 19 20 21 23 25 26 27
2 2 4 4 5 5 5 5 5 5 4 2 2 3 2 3 2 2 1 1 2 1 2 3 4 5 6 7 8 10 13 15 16 18 18 18 17 18 19 21 23 24 25
2 1 1 2 3 4 4 5 5 4 4 3 2 2 2 2 2 2 2 2 3 3 4 4 4 5 6 6 7 9 11 13 14 15 16 16 16 17 17 19 20 22 23
4 3 2 1 1 2 3 4 5 5 5 4 4 3 2 1 2 2 3 3 3 3 4 5 5 4 5 5 6 7 9 11 11 12 12 13 14 15 16 17 18 19 20
3 4 4 2 2 2 3 4 5 6 6 5 5 4 4 3 3 4 5 4 4 3 4 4 4 4 4 4 5 6 6 7 7 9 10 11 12 12 12 15 16 17 18
2 3 3 3 3 3 3 4 4 5 6 7 7 6 6 5 4 4 4 4 3 3 3 2 2 3 3 2 3 3 3 3 4 5 6 7 7 7 8 9 11 13 15
4 4 4 4 4 4 4 4 4 5 5 6 8 7 6 7 6 5 4 3 3 3 3 4 2 1 1 1 1 1 1 1 1 2 3 4 5 4 4 5 6 8 10
4 5 5 5 5 4 4 4 4 6 5 6 6 7 6 6 6 7 6 5 4 4 4 3 2 0 0 1 1 2 2 3 3 4 4 4 4 4 3 3 3 3 5
6 6 6 6 6 5 5 4 4 5 6 6 5 6 6 6 6 6 7 7 7 6 5 3 3 1 1 0 1 3 4 6 6 6 6 7 6 5 4 4 3 3 2
7 7 7 7 7 6 6 5 5 5 6 6 6 7 7 6 6 6 6 7 7 7 8 5 3 2 2 2 2 3 4 5 6 8 8 9 8 8 7 6 6 5 4
9 9 8 8 8 8 7 6 7 6 6 7 7 7 8 6 7 6 6 8 7 8 7 7 4 3 3 4 4 4 4 5 6 10 11 11 11 11 10 10 9 9 8
10 9 9 10 10 9 8 8 8 8 8 8 8 8 8 7 8 7 7 7 7 7 7 6 5 3 2 4 5 5 6 5 7 10 12 13 13 13 13 12 12 12 12
10 10 10 11 11 10 10 9 9 9 8 8 8 8 8 9 9 9 8 9 8 8 8 7 6 4 3 4 6 6 5 4 5 6 9 11 13 15 15 14 14 13 14
12 11 10 10 10 10 10 10 10 10 9 9 9 9 9 11 12 10 8 8 9 8 8 8 7 6 5 7 7 5 6 6 5 4 6 6 7 8 9 11 13 14 15
12 11 11 11 11 10 13 15 12 10 9 10 10 9 9 11 12 13 14 13 12 11 10 9 8 8 8 8 8 9 8 7 4 4 5 6 5 7 6 8 12 15 16
12 11 12 11 12 13 15 15 16 11 10 10 10 9 9 9 10 9 11 13 14 15 15 11 11 10 10 11 12 12 10 8 6 8 7 6 5 7 6 10 13 15 16
10 11 12 12 11 13 15 16 16 12 10 11 11 11 11 10 10 9 9 9 10 11 13 12 11 10 10 12 13 12 11 9 8 6 4 5 4 5 6 8 12 14 16
10 10 9 11 11 12 14 15 14 8 9 11 11 11 12 12 12 13 10 10 9 9 10 13 13 11 13 15 14 12 13 13 9 5 3 5 5 5 5 6 9 13 14
11 10 10 10 11 12 13 15 14 7 9 9 9 10 13 14 13 13 11 10 10 9 8 8 9 11 13 16 18 16 15 15 12 6 4 5 7 5 4 3 4 7 10
Wind_Direction
237 238 239 242 243 242 239 237 233 231 230 232 233 232 235 237 239 239 242 248 250 252 252 250 246 242 234 228 225 223 221 219 217 214 212 213 213 213 212 211 211 210 209
231 236 243 241 243 241 237 230 227 227 226 223 231 232 235 237 241 241 242 249 252 253 255 254 247 241 238 234 231 229 227 224 222 218 216 215 215 215 214 213 213 212 212
230 229 235 237 237 239 236 231 227 221 226 224 233 235 236 237 242 243 245 247 250 253 255 254 250 240 237 237 234 232 229 227 225 223 220 217 216 216 216 216 215 214 213
226 224 227 229 224 221 218 215 212 209 221 224 235 243 242 242 248 249 248 249 249 253 256 255 252 244 239 236 236 234 230 230 229 227 225 221 219 218 218 217 217 216 215
221 217 223 224 210 201 204 206 194 191 205 222 238 245 246 246 252 257 254 252 250 251 253 256 254 250 245 241 239 236 234 232 232 232 230 227 224 221 219 218 218 217 217
231 218 217 216 199 190 190 189 188 191 202 220 249 261 262 261 259 255 257 258 255 253 251 251 251 252 251 246 240 236 234 232 232 234 233 230 227 224 221 220 219 219 219
224 216 223 207 194 188 192 189 175 180 198 173 191 306 311 290 273 258 259 256 257 257 257 255 249 249 254 253 246 239 236 233 230 231 232 232 229 228 224 221 220 220 219
227 223 217 215 200 185 183 184 170 163 182 168 163 144 333 339 334 326 306 265 270 273 272 277 266 255 253 252 250 244 240 235 231 227 227 225 224 226 226 223 222 221 220
292 246 230 219 205 193 195 194 183 175 183 193 191 167 168 231 297 314 319 320 316 305 299 297 286 275 263 254 253 247 240 237 232 229 225 221 221 223 224 224 223 221 220
339 314 261 229 217 205 204 205 193 186 170 189 204 217 200 176 188 299 314 317 317 300 299 298 297 289 272 258 251 247 242 236 232 230 226 221 219 224 226 226 225 223 222
357 347 336 298 243 227 221 212 197 196 189 185 188 184 192 207 205 213 271 305 317 291 286 286 284 280 273 260 253 249 243 237 231 227 224 220 218 222 225 228 228 226 223
343 348 342 324 285 254 244 231 215 207 208 203 199 192 183 183 197 203 233 265 290 289 288 280 274 276 277 269 259 257 249 240 229 225 223 218 217 219 224 227 228 228 226
313 316 327 314 293 267 253 238 226 221 213 212 212 211 209 210 191 192 216 249 268 286 289 283 268 279 288 284 278 276 256 230 219 213 208 207 205 211 218 222 225 227 228
256 269 283 284 284 281 275 252 237 232 225 223 225 218 216 219 208 203 204 215 259 272 263 268 290 295 310 320 338 20 108 141 167 176 178 180 179 190 201 211 218 224 227
250 254 263 270 267 263 259 257 247 241 231 229 231 226 224 222 214 213 212 209 217 250 266 254 256 308 314 10 40 82 94 100 105 111 125 135 143 152 160 174 186 203 220
245 250 255 257 262 262 256 245 249 251 239 234 231 229 229 227 220 215 215 217 217 228 248 235 231 243 269 264 95 104 102 99 94 104 109 113 113 113 118 128 126 127 164
243 245 249 251 252 255 252 244 246 249 246 243 236 230 233 228 225 222 217 217 219 221 241 246 229 224 205 180 136 116 104 98 95 100 106 104 99 98 99 103 105 106 105
243 241 243 246 248 249 243 238 247 250 243 245 243 236 236 231 227 225 223 222 221 219 229 242 228 208 201 177 153 132 115 105 99 96 96 93 92 91 91 92 91 90 91
244 241 236 239 243 245 242 238 237 244 242 241 241 237 240 231 230 226 225 227 223 222 221 229 227 207 191 168 152 131 118 110 103 97 90 87 86 85 84 85 86 87 88
241 241 237 237 238 240 240 240 236 236 242 245 242 238 238 235 233 228 228 227 221 219 218 222 222 211 190 170 159 149 136 121 107 96 89 86 84 79 77 80 84 87 89
247 241 239 239 237 236 238 235 233 235 235 243 246 243 241 240 237 230 229 224 217 217 216 217 216 206 188 175 170 159 149 130 101 105 102 88 84 78 73 74 81 87 90
249 244 240 239 239 240 234 228 225 231 232 236 243 247 249 251 246 238 232 225 215 216 216 216 217 208 196 182 168 160 153 150 138 138 114 93 86 84 75 77 84 90 92
249 246 243 238 239 239 236 235 233 230 231 234 238 243 252 248 238 239 238 233 227 222 216 214 217 211 193 182 172 170 170 161 143 150 126 101 90 86 79 79 86 91 94
246 244 245 241 238 242 237 236 239 237 235 236 237 237 240 246 240 229 232 234 234 230 224 223 224 216 199 184 177 170 156 129 113 129 124 113 111 96 86 80 83 92 98
251 245 243 239 238 243 239 236 235 234 236 240 240 237 236 240 237 222 223 229 234 237 232 222 218 210 189 173 163 154 151 147 143 141 122 115 126 108 90 82 78 87 97
252 250 246 240 237 240 240 237 231 228 233 240 241 239 235 234 231 216 217 220 228 231 219 210 206 196 183 173 168 170 165 160 151 145 155 129 143 133 109 84 84 92 98
Height
1524 1524 1525 1525 1525 1526 1526 1527 1528 1528 1528 1529 1530 1530 1531 1531 1532 1533 1534 1535 1536 1538 1539 1539 1541 1542 1544 1546 1547 1549 1550 1552 1554 1556 1558 1561 1563 1565 1567 1569 1571 1573 1575
1521 1521 1521 1521 1522 1522 1522 1523 1524 1524 1525 1525 1526 1527 1527 1528 1528 1529 1530 1531 1532 1533 1535 1536 1537 1538 1539 1541 1543 1545 1546 1548 1550 1552 1554 1557 1559 1561 1564 1566 1568 1570 1572
1516 1517 1517 1517 1517 1518 1519 1519 1519 1520 1520 1521 1521 1522 1523 1523 1524 1525 1525 1526 1527 1529 1530 1531 1532 1533 1535 1536 1538 1540 1542 1544 1546 1548 1550 1552 1555 1557 1559 1562 1564 1567 1569
1512 1512 1513 1513 1513 1514 1514 1515 1515 1515 1516 1516 1517 1518 1518 1519 1519 1520 1520 1521 1522 1524 1525 1526 1527 1528 1529 1531 1533 1535 1537 1539 1541 1543 1545 1548 1550 1552 1555 1557 1560 1562 1565
1507 1508 1508 1508 1509 1510 1510 1511 1511 1512 1512 1512 1513 1513 1514 1514 1514 1515 1515 1516 1517 1518 1520 1521 1521 1522 1524 1526 1527 1529 1531 1533 1535 1538 1540 1542 1545 1547 1550 1552 1555 1558 1560
1503 1504 1504 1505 1505 1506 1507 1507 1508 1508 1509 1509 1509 1509 1509 1509 1509 1510 1511 1512 1513 1513 1514 1515 1516 1517 1519 1520 1521 1524 1526 1527 1530 1532 1534 1537 1539 1542 1544 1547 1550 1553 1555
1499 1499 1500 1501 1502 1503 1504 1504 1505 1505 1506 1506 1506 1506 1506 1505 1505 1506 1507 1508 1509 1509 1510 1511 1512 1513 1514 1515 1516 1518 1520 1522 1524 1526 1528 1531 1533 1536 1539 1541 1544 1547 1550
1495 1495 1497 1498 1499 1500 1501 1501 1502 1503 1503 1504 1504 1503 1503 1503 1502 1503 1503 1504 1505 1506 1506 1507 1507 1508 1509 1510 1511 1512 1514 1516 1518 1520 1522 1525 1527 1530 1532 1535 1538 1541 1544
1491 1493 1494 1495 1496 1496 1497 1498 1499 1500 1500 1501 1501 1502 1501 1500 1500 1500 1500 1502 1502 1502 1503 1503 1503 1504 1504 1505 1506 1507 1509 1510 1512 1514 1516 1518 1521 1523 1526 1529 1532 1535 1537
1488 1489 1490 1490 1492 1493 1493 1494 1496 1496 1497 1497 1498 1498 1499 1498 1498 1498 1498 1499 1499 1499 1499 1499 1499 1499 1500 1500 1501 1502 1503 1505 1506 1508 1510 1512 1514 1517 1520 1523 1525 1528 1531
1485 1485 1485 1486 1487 1488 1489 1490 1491 1492 1493 1493 1494 1495 1495 1495 1495 1495 1494 1495 1496 1496 1496 1496 1495 1495 1496 1496 1496 1497 1498 1500 1501 1503 1505 1507 1509 1511 1514 1516 1519 1521 1524
1481 1481 1481 1481 1482 1482 1484 1485 1486 1487 1488 1489 1490 1491 1491 1491 1491 1492 1491 1491 1491 1492 1492 1492 1491 1491 1491 1492 1492 1493 1494 1495 1496 1498 1500 1502 1504 1506 1508 1510 1512 1514 1517
1477 1477 1476 1476 1476 1477 1477 1479 1480 1481 1482 1483 1485 1485 1486 1487 1488 1488 1488 1488 1487 1487 1487 1488 1488 1487 1487 1488 1488 1489 1490 1491 1492 1494 1495 1497 1499 1501 1503 1504 1506 1508 1511
1472 1472 1471 1471 1471 1471 1471 1472 1473 1474 1476 1477 1478 1479 1481 1482 1483 1484 1484 1485 1484 1483 1483 1484 1484 1484 1484 1484 1485 1485 1486 1487 1489 1490 1492 1493 1495 1496 1498 1499 1500 1502 1505
1468 1467 1467 1466 1466 1465 1465 1465 1466 1467 1468 1470 1471 1472 1474 1476 1477 1479 1480 1481 1482 1480 1480 1480 1481 1481 1481 1481 1482 1482 1483 1484 1485 1487 1488 1489 1491 1492 1493 1495 1496 1497 1499
1463 1462 1462 1461 1460 1460 1459 1459 1460 1461 1461 1462 1464 1466 1467 1469 1471 1472 1474 1475 1476 1477 1477 1476 1477 1478 1478 1479 1479 1479 1480 1481 1482 1484 1485 1486 1487 1489 1490 1491 1492 1494 1495
1457 1456 1456 1455 1454 1454 1454 1454 1454 1454 1455 1456 1457 1459 1460 1462 1464 1466 1468 1469 1470 1471 1472 1472 1473 1474 1475 1476 1476 1477 1478 1479 1480 1481 1482 1484 1485 1486 1487 1488 1489 1490 1491
1450 1450 1449 1448 1448 1448 1448 1447 1448 1448 1449 1449 1451 1452 1453 1455 1457 1458 1460 1462 1463 1465 1467 1467 1469 1470 1471 1473 1474 1475 1475 1476 1478 1479 1480 1481 1482 1483 1484 1485 1487 1488 1489
1442 1442 1441 1441 1441 1441 1441 1441 1441 1442 1443 1443 1444 1445 1446 1448 1449 1452 1454 1456 1457 1459 1461 1462 1463 1466 1467 1469 1471 1472 1473 1475 1476 1477 1479 1480 1481 1482 1483 1484 1485 1486 1487
1433 1433 1433 1433 1433 1433 1434 1434 1434 1435 1435 1436 1437 1438 1439 1441 1442 1444 1447 1449 1451 1453 1455 1457 1458 1460 1463 1465 1467 1469 1471 1473 1474 1476 1477 1479 1480 1481 1482 1483 1484 1486 1487
1424 1423 1424 1424 1425 1425 1426 1426 1427 1427 1428 1429 1430 1431 1433 1434 1435 1437 1439 1442 1444 1446 1448 1450 1452 1455 1457 1459 1462 1465 1468 1470 1473 1474 1476 1478 1480 1481 1482 1484 1485 1486 1487
1414 1414 1414 1414 1415 1416 1417 1418 1419 1420 1420 1421 1422 1424 1425 1427 1428 1430 1432 1434 1437 1439 1441 1444 1446 1448 1451 1454 1458 1461 1464 1467 1470 1473 1475 1477 1480 1481 1483 1484 1485 1487 1488
1404 1404 1404 1405 1405 1407 1409 1410 1411 1412 1412 1413 1415 1416 1417 1419 1421 1423 1424 1426 1429 1432 1435 1437 1439 1441 1445 1448 1452 1456 1460 1464 1466 1470 1474 1476 1479 1481 1483 1485 1486 1488 1489
1394 1394 1395 1396 1396 1398 1400 1401 1403 1403 1404 1405 1407 1408 1409 1411 1413 1415 1417 1419 1421 1424 1427 1430 1433 1436 1440 1444 1447 1452 1456 1461 1465 1469 1473 1475 1479 1481 1484 1486 1488 1489 1491
1384 1385 1385 1386 1387 1389 1391 1393 1394 1395 1396 1397 1399 1400 1402 1403 1405 1408 1410 1411 1414 1417 1420 1423 1426 1430 1434 1438 1442 1447 1452 1456 1461 1466 1470 1473 1477 1481 1484 1486 1489 1491 1492
1375 1375 1376 1378 1379 1381 1383 1385 1386 1387 1388 1389 1391 1392 1394 1396 1398 1400 1402 1404 1407 1410 1413 1416 1420 1423 1427 1432 1436 1441 1446 1451 1456 1462 1467 1471 1475 1479 1484 1487 1490 1492 1494